Regional Weather Roundup
Issued by NWS Upton, NY

Current Version | Previous Version | Text Only | Print | Product List | Glossary On
Versions: 1 2 3 4 5 6 7 8 9 10 11 12 13 14 15 16 17 18 19 20 21 22 23 24 25 26 27 28 29 30 31 32 33 34 35 36 37 38 39 40 41 42 43 44 45 46 47 48 49 50
000
ASUS41 KOKX 312104
RWROKX

REGIONAL WEATHER ROUNDUP
NATIONAL WEATHER SERVICE NEW YORK NY
500 PM EDT WED AUG 31 2016

NOTE: "FAIR" INDICATES FEW OR NO CLOUDS BELOW 12,000 FEET WITH NO
SIGNIFICANT WEATHER AND/OR OBSTRUCTIONS TO VISIBILITY.

NYZ071-072-176-178-NJZ106-104-312200-
NEW YORK CITY METRO AREA

CITY           SKY/WX    TMP DP  RH WIND       PRES   REMARKS
Central Park   CLOUDY    86  62  44 S3        29.91F
LaGuardia APRT PTSUNNY   86  68  54 S12       29.87F
Kennedy INTL   CLOUDY    82  75  79 S16       29.90F
Newark/Liberty CLOUDY    85  67  54 E9        29.88F
Bronx Bot Gard   N/A     84  66  54 SE8       29.89F
Wall St Helipt CLOUDY    84  70  61 S8        29.89F
Teterboro      CLOUDY    87  59  38 W9        29.86F
$$

NYZ177-179-078>081-312200-
LONG ISLAND NEW YORK

CITY           SKY/WX    TMP DP  RH WIND       PRES   REMARKS
Farmingdale    CLOUDY    80  70  71 SW14      29.90F
MacArthur/ISP  CLOUDY    79  70  74 S10       29.89F
Shirley        CLOUDY    79  70  74 S13       29.91F
Riverhead      NOT AVBL
Westhampton    CLOUDY    78  70  76 S7        29.92F
Southampton      N/A     77  72  83 SW6       29.87F
Bridgehampton  NOT AVBL
East Hampton   FAIR      76  70  81 S7        29.91S
Montauk          N/A     77  72  84 VRB6      29.92F
$$

NYZ052-065-067-312200-
HUDSON VALLEY

CITY           SKY/WX    TMP DP  RH WIND       PRES   REMARKS
White Plains   CLOUDY    82  64  54 SW5       29.90F
Newburgh       PTSUNNY   79  70  73 CALM      29.92F
Montgomery     CLOUDY    80  68  66 N3        29.90F
Poughkeepsie   CLOUDY    78  66  66 SW5       29.88F
Albany         LGT RAIN  75  66  73 S5        29.87F
$$

NJZ001-105-106-008-010-013-015-019>022-104-312200-
NEW JERSEY

CITY           SKY/WX    TMP DP  RH WIND       PRES   REMARKS
Newark/Liberty CLOUDY    85  67  54 E9        29.88F
Teterboro      CLOUDY    87  59  38 W9        29.86F
Caldwell       CLOUDY    87  63  44 VRB3      29.88F
Morristown     PTSUNNY   86  64  48 SW6       29.89F
Somerville     CLOUDY    87  65  47 CALM      29.86F
Linden         MOCLDY    85  67  54 SE8       29.89F
Sussex         CLOUDY    81  67  62 SW3       29.90F
Abdover          N/A     79  68  69 CALM      29.91F
Trenton        MOSUNNY   89  60  37 N6        29.87F
Millville      SUNNY     86  65  49 VRB5      29.90F
Atlantic City  SUNNY     84  65  52 S14       29.90F
Wrightstown    MOSUNNY   88  62  41 S5        29.85F
Toms River     SUNNY     85  68  56 S12G21    29.90S
Belmar         MOSUNNY   83  68  60 SE10      29.90F
$$

PAZ047>061-062-071-312200-
EASTERN PENNSYLVANIA

CITY           SKY/WX    TMP DP  RH WIND       PRES   REMARKS
Philadelphia   PTSUNNY   89  62  40 W6        29.88F
Allentown      PTSUNNY   86  66  51 NW6       29.89F
Scranton       CLOUDY    79  66  64 NW5       29.92F
$$

CTZ002-004>006-009-010-012-RIZ004-006-007-MAZ004-011-015-312200-
SOUTHERN NEW ENGLAND
 IN CT

CITY           SKY/WX    TMP DP  RH WIND       PRES   REMARKS
Bradley INTL   CLOUDY    79  66  64 SW7       29.88F
Hartford       CLOUDY    83  66  56 S8        29.88F
Danbury        CLOUDY    78  67  68 SW3       29.91F
Wtrbury/Oxford CLOUDY    77  64  65 SW3       29.95F
Bridgeport     MOSUNNY   83  66  56 S7        29.89F
Meriden        CLOUDY    82  65  56 VRB3      29.89F
New Haven      CLOUDY    82  67  60 S3        29.89F
Chester        FAIR      81  68  65 VRB5      29.91F
Groton         CLOUDY    78  71  79 S6        29.90F
Wilimantic     CLOUDY    80  67  64 W6        29.90F

 IN RI

CITY           SKY/WX    TMP DP  RH WIND       PRES   REMARKS
Providence     NOT AVBL
Block Island   CLOUDY    78  71  79 SW13      29.92F
Westerly       CLOUDY    79  68  69 SW10      29.91F
 IN MA

CITY           SKY/WX    TMP DP  RH WIND       PRES   REMARKS
Boston         CLOUDY    81  65  58 SW10      29.86F
Worcester      CLOUDY    74  64  71 SW10      29.91F
Westfield      CLOUDY    79  66  64 S8        29.87F
Provincetown   CLOUDY    75  70  84 SW14G23   29.88F
Nantucket      CLOUDY    73  68  84 S13       29.92F
$$

ANZ330-335-338-340-345-350-353-355-312200-
COASTAL MARINE OBSERVATIONS


STATION/POSITION TIME  SKY/WX   TEMP    WIND        PRES    VSBY  WAVE
                                AIR SEA DIR/SP/G                  HT/PER
                 (UTC)          (F)     (DEG/KT/KT) (MB)    (MI)  (FT/S)
NY HARB ENTRANCE 1950            78 79  180/ 14/ 16 1012.6          4/11
20S FIRE ISLAND  1950            77 77  190/ 10/ 10 1012.9          4/10
GREAT SOUTH BAY  2030            77 80  200/ 12/ 14   N/A
23 SSW MONTAUK P 1950            77 78  220/ 14/ 16 1013.8          3/11
15 E BARNEGAT LI 2000               79                N/A           4/11
HUDSON CANYON    1950            78 80              1014.1          4/10
KINGS POINT      2000            81 78              1012.1
EXECUTION ROCKS  2000            83     280/  6/ 12   N/A
CENTRAL LI SOUND 2015            78 77  170/  4/  6   N/A           1
EASTERN LI SOUND 2000            75 71  230/  2/  2   N/A
ROBBINS REEF     2000            77     160/ 17/ 18 1011.8
$$


>>>>>>>>>>>>>>>>>>>>>>>>>>>> KEY <<<<<<<<<<<<<<<<<<<<<<<<<<<
>                                                          <
>     SKY/WX - Sky Condition/Present Weather               <
>     TMP    - Temperature in Fahrenheit                   <
>     DP     - Dew Point in Fahrenheit                     <
>     RH     - Relative Humidity in Percent                <
>     WIND   - Direction (from) and Speed in MPH           <
>     PRES   - Mean Sea Level Pressure (inches of Hg)      <
>     WCI    - Wind Chill Index                            <
>     VSB    - VISIBILITY IN MILES                         <
>     HX     - HEAT INDEX                                  <
>     TC     - TEMPERATURE IN CELSIUS                      <
>     VRB    - VARIABLE WIND DIRECTION                     <
>                                                          <
>>>>>>>>>>>>>>>>>>>>>>>>>>>> KEY <<<<<<<<<<<<<<<<<<<<<<<<<<<



USA.gov is the U.S. government's official web portal to all federal, state and local government web resources and services.